User: anonymous   Login
Location: Unspecified
(0.0000°N, 0.0000°E)
Time: 12:03:08
(UTC+00:00)
Language:

MetOp-A - Orbit

View from above orbital plane
View from above orbital plane
View from above satellite
View from above satellite

Ground track
Ground track

The orbit data is extracted from the following two-line orbital elements,

1 29499U 06044A   24113.81340522  .00005448  00000-0  68918-3 0  9999
2 29499  98.3582 187.5544 0189983  44.2320  67.7395 14.70311992909795
Epoch (UTC): 22 April 2024 19:31:18
Eccentricity: 0.0189983
inclination: 98.3582°
perigee height: 526 km
apogee height: 794 km
right ascension of ascending node: 187.5544°
argument of perigee: 44.2320°
revolutions per day: 14.70311992
mean anomaly at epoch: 67.7395°
orbit number at epoch: 90979

The dashed part of the orbit path shows where the satellite is in the earth's shadow,  

DLR